{"data":{"norad_id":59194,"epoch":"2026-09-20T22:03:06.189696Z","epoch_age_seconds":122666,"freshness":"FRESH","line1":"1 59194U 24045S   26263.91882164 -.00001187  00000+0 -33567-4 0  9997","line2":"2 59194  43.0084  69.6013 0003765 249.1242 110.9207 15.27576816143027","mean_motion":15.27576816,"eccentricity":0.0003765,"inclination_deg":43.0084,"raan_deg":69.6013,"arg_perigee_deg":249.1242,"mean_anomaly_deg":110.9207,"bstar":-3.3567e-5,"rev_number":14302,"period_min":94.266945198257,"perigee_km":480.47538994292,"apogee_km":485.64187025238,"semimajor_km":6861.1956300977,"source":"CELESTRAK","updated_at":"2026-09-21T09:00:34.065486Z"}}